Location: Buena Vista
(37.7110°N, 119.7938°W)
Time: 08:29:08
(UTC+00:00)

LilacSat-2 - Visible Passes

Search period start: 07 October 2024 00:00
Search period end: 17 October 2024 00:00
Orbit: 469 x 483 km, 97.5° (Epoch: 06 October)

Date Brightness Start Highest point End Pass type
(mag) Time Alt. Az. Time Alt. Az. Time Alt. Az.
07 Oct ? 03:01:56 10° WSW 03:02:33 10° W 03:03:10 10° W visible
08 Oct ? 02:32:30 10° SSW 02:35:22 23° W 02:38:16 10° NW visible
09 Oct ? 02:04:47 10° S 02:08:15 56° W 02:11:45 10° NNW visible
09 Oct ? 13:34:05 10° ENE 13:35:17 11° E 13:36:29 10° ESE visible
11 Oct ? 02:45:02 10° SW 02:47:22 17° W 02:49:43 10° NW visible
12 Oct ? 02:16:45 10° SSW 02:20:03 38° W 02:23:23 10° NNW visible
13 Oct ? 01:49:15 10° SSE 01:52:46 84° ENE 01:56:20 10° N visible
14 Oct ? 02:57:29 10° WSW 02:58:54 12° W 03:00:20 10° WNW visible
15 Oct ? 02:28:21 10° SSW 02:31:23 27° W 02:34:27 10° NW visible
16 Oct ? 02:00:25 10° S 02:03:55 67° W 02:07:28 10° NNW visible
